Location: Kelowna
(49.8880°N, 119.4960°W)
Time: 00:20:59
(UTC-07:00)

TIGRISAT - Pass Details

Date: 03 May 2024
Orbit: 594 x 672 km, 97.7° (Epoch: 21 May)

Event Time Altitude Azimuth Distance (km) Brightness Sun altitude
Rises 03:05:37 0° 109° (ESE) 2,867 ? -18.2°
Reaches altitude 10° 03:09:08 10° 77° (ENE) 1,954 ? -17.9°
Maximum altitude 03:10:40 12° 56° (NE) 1,835 ? -17.7°
Drops below altitude 10° 03:12:11 10° 35° (NE) 1,949 ? -17.6°
Sets 03:15:41 0° 4° (N) 2,850 ? -17.3°
